Location: *
(40.9167°N, 9.5000°E)
Time: 08:47:26
(UTC+00:00)

Cosmos 2154 Rocket - Pass Details

Date: 09 April 2020
Orbit: 965 x 997 km, 82.9° (Epoch: 03 June)

Event Time Altitude Azimuth Distance (km) Brightness Sun altitude
Rises 19:24:48 0° 350° (N) 3,725 7.6 -16.7°
Reaches altitude 10° 19:27:21 10° 348° (NNW) 2,770 6.9 -17.1°
Maximum altitude 19:33:40 70° 266° (W) 1,052 4.3 -18.2°
Drops below altitude 10° 19:39:54 10° 184° (S) 2,735 6.1 -19.2°
Enters shadow 19:41:47 - 183° (S) 3,443 6.6 -19.5°
